, AZ

(GMT )
Fort Huachuca

Weather History for KALK - August, 2014

Change the Weather History Date:

Thursday, August 14, 2014

  Actual Average Record
Temperature  
Mean Temperature 72 °F -  
Max Temperature 80 °F - - ()
Min Temperature 64 °F - - ()
Cooling Degree Days 7    
Growing Degree Days 22 (Base 50)    
Moisture  
Dew Point 62 °F    
Average Humidity 72    
Maximum Humidity 90    
Minimum Humidity 50    
Precipitation  
Precipitation 0.00 in - - ()
Sea Level Pressure  
Sea Level Pressure 29.94 in    
Wind  
Wind Speed 5 mph (South)    
Max Wind Speed 15 mph    
Max Gust Speed 20 mph    
Visibility 10 miles    
Events      
Averages and records for this station are not official NWS values.
T = Trace of Precipitation, MM = Missing Value Source: NWS Daily Summary

Daily Weather History Graph

Daily Weather History Graph

Search for Another Location

Airport or City:

Astronomy

Aug. 14, 2014 Rise Set
Actual Time 5:46 AM MST 7:05 PM MST
Civil Twilight 5:20 AM MST 7:31 PM MST
Nautical Twilight 4:49 AM MST 8:02 PM MST
Astronomical Twilight 4:18 AM MST 8:33 PM MST
Moon 9:53 PM MST (8/14) 10:06 AM MST (8/14)
Length of Visible Light 14h 11m
Length of Day
13h 19m
Waning Gibbous, 78% of the Moon is Illuminated
Aug 14
Waning Gibbous
Aug 17
Last Quarter
Aug 25
New
Sep 2
First Quarter
Sep 8
Full

Hourly Weather History & Observations

Time (MST) Temp. Heat Index Dew Point Humidity Pressure Visibility Wind Dir Wind Speed Gust Speed Precip Events Conditions
12:56 AM 66.0 °F - 60.1 °F 81% 29.93 in 10.0 mi South 5.8 mph - N/A   Clear
1:56 AM 64.9 °F - 61.0 °F 87% 29.93 in 10.0 mi Calm Calm - N/A   Clear
2:56 AM 66.0 °F - 61.0 °F 84% 29.93 in 10.0 mi WNW 6.9 mph - N/A   Mostly Cloudy
3:56 AM 64.9 °F - 60.1 °F 84% 29.93 in 10.0 mi Calm Calm - N/A   Clear
5:56 AM 64.0 °F - 60.1 °F 87% 29.94 in 10.0 mi SSW 4.6 mph - N/A   Clear
6:56 AM 64.9 °F - 62.1 °F 90% 29.99 in 10.0 mi WNW 3.5 mph - N/A   Scattered Clouds
7:56 AM 71.1 °F - 62.1 °F 73% 29.99 in 10.0 mi Calm Calm - N/A   Partly Cloudy
8:56 AM 73.0 °F - 64.0 °F 73% 29.98 in 10.0 mi East 5.8 mph - N/A   Partly Cloudy
9:56 AM 75.9 °F - 61.0 °F 60% 29.97 in 10.0 mi ESE 13.8 mph - N/A   Clear
10:56 AM 79.0 °F - 61.0 °F 54% 29.96 in 10.0 mi ESE 12.7 mph - N/A   Clear
11:56 AM 80.1 °F 81.1 °F 61.0 °F 52% 29.94 in 10.0 mi SE 15.0 mph 19.6 mph N/A   Clear
1:56 PM 79.0 °F - 59.0 °F 50% 29.92 in 10.0 mi East 6.9 mph - N/A   Clear
2:56 PM 78.1 °F - 59.0 °F 52% 29.91 in 10.0 mi ESE 4.6 mph - 0.00 in   Clear
3:56 PM 78.1 °F - 60.1 °F 54% 29.89 in 10.0 mi East 4.6 mph - N/A   Clear
4:56 PM 77.0 °F - 60.1 °F 56% 29.89 in 10.0 mi Calm Calm - N/A   Clear
5:56 PM 75.9 °F - 60.1 °F 58% 29.90 in 10.0 mi Calm Calm - N/A   Clear
6:56 PM 75.0 °F - 62.1 °F 64% 29.93 in 10.0 mi Calm Calm - N/A   Scattered Clouds
7:56 PM 70.0 °F - 64.9 °F 84% 29.94 in 10.0 mi WSW 6.9 mph - N/A   Mostly Cloudy
8:56 PM 70.0 °F - 64.9 °F 84% 29.94 in 10.0 mi SW 6.9 mph - N/A   Scattered Clouds
9:56 PM 70.0 °F - 66.0 °F 87% 29.94 in 10.0 mi WNW 4.6 mph - N/A   Partly Cloudy
10:56 PM 69.1 °F - 66.0 °F 90% 29.93 in 10.0 mi WSW 4.6 mph - N/A   Partly Cloudy
11:56 PM 69.1 °F - 66.0 °F 90% 29.92 in 10.0 mi West 4.6 mph - N/A   Overcast